Project,Study,Ord_Occ,Event_Num,Cast_ID,Date_Time_UTC,Date_Time_PST,Lat_Dec,Lon_Dec,Sta_ID,Line,Sta,Depth,Pressure,PrQ,Temp1,Temp1Q,Temp2,Temp2Q,TempAve,Salt1,Salt1Q,Salt1_Corr,Salt2,Salt2Q,Salt2_Corr,SaltAve_Corr,Ox1,Ox1Q,Ox1_CruiseCorr,Ox1_StaCorr,Ox2,Ox2Q,Ox2_CruiseCorr,Ox2_StaCorr,OxAve_StaCorr,Ox1uM,Ox1uM_CruiseCorr,Ox1uM_StaCorr,Ox2uM,Ox2uM_CruiseCorr,Ox2uM_StaCorr,OxAveuM_StaCorr,FluorV,FluorQ,EstChl_CruiseCorr,EstChl_StaCorr,ISUSV,ISUSQ,EstNO3_CruiseCorr,EstNO3_StaCorr,SigThetaTS1,SigThetaTS1Q,SigThetaTS2,SigThetaTS2Q,BAT,XMiss,TransQ,pH,pHQ,SPAR,SPARQ,PAR,PARQ,PoT1,PoT2,DynHt,SVA,OxSat1,OxSat2,BTL_Depth,BTL_Temp,SaltB,OxB,OxBuM,Chl-a,Phaeo,NO3,NO2,NH4,PO4,SIL
CalCOFI,2101RL,042,,2101_042d,24-Jan-2021 22:04:27,24-Jan-2021 14:04:27,33.87141,-120.12628,083.3 051.0,083.3,051.0,4.000,4.029,,13.5954,,13.5959,,13.5957,33.4719,,33.4777,33.4691,,33.4711,33.4744,5.4287,,5.6816,5.8638,5.3698,,5.7013,5.8404,5.8521,236.511,247.8399,177.4393,233.944,263.4563,178.0269,177.7331,0.1253,,0.7785,0.9640, ,, , ,25.0897,,25.0874,,0.8809,80.2335,,,,6.4335E+02,,4.3458E+00,,13.5949,13.5954,0.0011,286.347,91.833,90.836,,,,,,,,,,,,
CalCOFI,2101RL,042,,2101_042d,24-Jan-2021 22:04:37,24-Jan-2021 14:04:37,33.87136,-120.12630,083.3 051.0,083.3,051.0,5.000,5.036,,13.5896,,13.5892,,13.5894,33.4726,,33.4784,33.4698,,33.4718,33.4751,5.4020,,5.6536,5.8345,5.3542,,5.6847,5.8232,5.8289,235.347,246.6214,177.1446,233.266,262.1620,177.8420,177.4933,0.1304,,0.8203,0.9755, ,, , ,25.0914,,25.0893,,0.8816,80.2205,,,,6.4869E+02,,3.1311E+00,,13.5889,13.5885,0.0059,286.211,91.371,90.561,5,,33.4688,5.689,248.17,-0.021,1.726,,,,,
CalCOFI,2101RL,042,,2101_042d,24-Jan-2021 22:04:39,24-Jan-2021 14:04:39,33.87138,-120.12630,083.3 051.0,083.3,051.0,6.000,6.043,,13.5886,,13.5858,,13.5872,33.4727,,33.4785,33.4701,,33.4721,33.4753,5.4008,,5.6524,5.8332,5.3313,,5.6604,5.7980,5.8156,235.295,246.5670,177.1315,232.269,262.1041,177.5702,177.3509,0.1268,,0.7908,0.9674, ,, , ,25.0917,,25.0903,,0.8801,80.2498,,,,6.4247E+02,,2.3356E+00,,13.5877,13.5850,0.0088,286.208,91.349,90.167,,,,,,,,,,,,
CalCOFI,2101RL,042,,2101_042d,24-Jan-2021 22:04:40,24-Jan-2021 14:04:40,33.87138,-120.12630,083.3 051.0,083.3,051.0,7.000,7.050,,13.5823,,13.5800,,13.5812,33.4731,,33.4789,33.4707,,33.4727,33.4758,5.4093,,5.6613,5.8425,5.3455,,5.6755,5.8136,5.8281,235.667,246.9564,177.2256,232.888,262.5178,177.7390,177.4823,0.1328,,0.8400,0.9809, ,, , ,25.0934,,25.0920,,0.8790,80.2724,,,,6.4913E+02,,1.8547E+00,,13.5813,13.5791,0.0117,286.081,91.482,90.398,7,,33.4691,, ,,,,,,,
CalCOFI,2101RL,042,,2101_042d,24-Jan-2021 22:04:42,24-Jan-2021 14:04:42,33.87136,-120.12628,083.3 051.0,083.3,051.0,8.000,8.058,,13.5814,,13.5809,,13.5812,33.4735,,33.4793,33.4708,,33.4728,33.4761,5.4154,,5.6677,5.8492,5.3705,,5.7020,5.8412,5.8452,235.932,247.2338,177.2927,233.974,262.8125,178.0351,177.6639,0.1248,,0.7744,0.9628, ,, , ,25.0939,,25.0919,,0.8776,80.3000,,,,6.6001E+02,,1.5026E+00,,13.5802,13.5798,0.0145,286.061,91.583,90.821,,,,,,,,,,,,
CalCOFI,2101RL,042,,2101_042d,24-Jan-2021 22:04:43,24-Jan-2021 14:04:43,33.87136,-120.12628,083.3 051.0,083.3,051.0,9.000,9.065,,13.5911,,13.5925,,13.5918,33.4725,,33.4783,33.4696,,33.4716,33.4750,5.4046,,5.6564,5.8374,5.3738,,5.7055,5.8448,5.8411,235.463,246.7429,177.1740,234.120,262.2909,178.0749,177.6245,0.1263,,0.7867,0.9662, ,, , ,25.0912,,25.0887,,0.8802,80.2482,,,,6.5553E+02,,1.1393E+00,,13.5899,13.5913,0.0174,286.348,91.419,90.898,,,,,,,,,,,,
CalCOFI,2101RL,042,,2101_042d,24-Jan-2021 22:04:45,24-Jan-2021 14:04:45,33.87136,-120.12626,083.3 051.0,083.3,051.0,10.000,10.072,,13.5854,,13.5936,,13.5895,33.4732,,33.4790,33.4695,,33.4715,33.4753,5.3892,,5.6402,5.8204,5.3595,,5.6903,5.8290,5.8247,234.792,246.0405,177.0041,233.499,261.5448,177.9055,177.4548,0.1311,,0.8260,0.9771, ,, , ,25.0929,,25.0884,,0.8794,80.2635,,,,6.4658E+02,,8.6522E-01,,13.5841,13.5922,0.0203,286.214,91.148,90.659,10,,33.4696,5.612,244.82,1.616,0.083,,,,,
CalCOFI,2101RL,042,,2101_042d,24-Jan-2021 22:04:47,24-Jan-2021 14:04:47,33.87137,-120.12626,083.3 051.0,083.3,051.0,11.000,11.079,,13.5784,,13.5875,,13.5830,33.4739,,33.4797,33.4702,,33.4722,33.4760,5.3783,,5.6288,5.8085,5.3388,,5.6683,5.8062,5.8074,234.314,245.5401,176.8831,232.593,261.0132,177.6585,177.2708,0.1314,,0.8285,0.9778, ,, , ,25.0949,,25.0902,,0.8777,80.2983,,,,6.5436E+02,,6.2498E-01,,13.5769,13.5859,0.0232,286.049,90.950,90.296,,,,,,,,,,,,
CalCOFI,2101RL,042,,2101_042d,24-Jan-2021 22:04:48,24-Jan-2021 14:04:48,33.87140,-120.12626,083.3 051.0,083.3,051.0,12.000,12.086,,13.5754,,13.5739,,13.5747,33.4739,,33.4797,33.4714,,33.4734,33.4766,5.3694,,5.6195,5.7987,5.3224,,5.6509,5.7882,5.7935,233.925,245.1329,176.7846,231.881,260.5807,177.4644,177.1245,0.1323,,0.8359,0.9798, ,, , ,25.0955,,25.0939,,0.8788,80.2757,,,,6.6162E+02,,4.3028E-01,,13.5738,13.5722,0.0261,286.016,90.794,89.996,,,,,,,,,,,,
CalCOFI,2101RL,042,,2101_042d,24-Jan-2021 22:04:50,24-Jan-2021 14:04:50,33.87140,-120.12626,083.3 051.0,083.3,051.0,13.000,13.094,,13.5701,,13.5701,,13.5701,33.4743,,33.4801,33.4716,,33.4736,33.4769,5.3612,,5.6109,5.7897,5.3009,,5.6281,5.7645,5.7771,233.570,244.7613,176.6947,230.943,260.1859,177.2086,176.9517,0.1348,,0.8564,0.9854, ,, , ,25.0970,,25.0949,,0.8760,80.3330,,,,6.5895E+02,,2.4844E-01,,13.5683,13.5683,0.0289,285.907,90.646,89.625,,,,,,,,,,,,
CalCOFI,2101RL,042,,2101_042d,24-Jan-2021 22:04:51,24-Jan-2021 14:04:51,33.87138,-120.12628,083.3 051.0,083.3,051.0,14.000,14.101,,13.5518,,13.5494,,13.5506,33.4761,,33.4819,33.4734,,33.4754,33.4787,5.3122,,5.5596,5.7359,5.2779,,5.6037,5.7391,5.7375,231.433,242.5243,176.1536,229.941,257.8095,176.9354,176.5445,0.1362,,0.8678,0.9886, ,, , ,25.1021,,25.1005,,0.8748,80.3570,,,,6.5458E+02,,1.0211E-01,,13.5499,13.5475,0.0318,285.450,89.785,89.200,,,,,,,,,,,,
CalCOFI,2101RL,042,,2101_042d,24-Jan-2021 22:04:53,24-Jan-2021 14:04:53,33.87138,-120.12628,083.3 051.0,083.3,051.0,15.000,15.108,,13.5584,,13.5604,,13.5594,33.4754,,33.4812,33.4723,,33.4743,33.4778,5.2323,,5.4760,5.6482,5.2163,,5.5382,5.6713,5.6598,227.952,238.8804,175.2723,227.257,253.9386,176.2035,175.7379,0.1345,,0.8539,0.9848, ,, , ,25.1003,,25.0974,,0.8746,80.3610,,,,6.5635E+02,,3.3648E-03,,13.5563,13.5583,0.0347,285.651,88.446,88.178,,,,,,,,,,,,
CalCOFI,2101RL,042,,2101_042d,24-Jan-2021 22:04:55,24-Jan-2021 14:04:55,33.87136,-120.12628,083.3 051.0,083.3,051.0,16.000,16.115,,13.4998,,13.4931,,13.4965,33.4808,,33.4866,33.4794,,33.4814,33.4840,5.1382,,5.3775,5.5448,5.1211,,5.4371,5.5664,5.5556,223.850,234.5864,174.2337,223.105,249.3771,175.0714,174.6526,0.1318,,0.8318,0.9787, ,, , ,25.1164,,25.1166,,0.8681,80.4918,,,,6.5584E+02,,7.5595E-05,,13.4976,13.4908,0.0376,284.145,86.754,86.453,,,,,,,,,,,,
CalCOFI,2101RL,042,,2101_042d,24-Jan-2021 22:04:57,24-Jan-2021 14:04:57,33.87135,-120.12630,083.3 051.0,083.3,051.0,17.000,17.123,,13.4258,,13.4121,,13.4190,33.4868,,33.4926,33.4857,,33.4877,33.4902,4.8269,,5.0517,5.2030,4.8952,,5.1972,5.3175,5.2603,210.283,220.3844,170.7987,213.261,234.2904,172.3871,171.5929,0.1288,,0.8072,0.9719, ,, , ,25.1360,,25.1379,,0.8580,80.6948,,,,6.5609E+02,,1.0000E-12,,13.4234,13.4098,0.0404,282.305,81.378,82.507,,,,,,,,,,,,
CalCOFI,2101RL,042,,2101_042d,24-Jan-2021 22:04:59,24-Jan-2021 14:04:59,33.87134,-120.12632,083.3 051.0,083.3,051.0,18.000,18.130,,13.3324,,13.3368,,13.3346,33.4934,,33.4992,33.4907,,33.4927,33.4960,4.4141,,4.6197,4.7497,4.5182,,4.7968,4.9022,4.8260,192.296,201.5557,166.2445,196.829,214.2886,167.9065,167.0755,0.1189,,0.7261,0.9495, ,, , ,25.1600,,25.1570,,0.8448,80.9610,,,,6.5839E+02,,1.0000E-12,,13.3299,13.3343,0.0432,280.047,74.280,76.036,,,,,,,,,,,,
CalCOFI,2101RL,042,,2101_042d,24-Jan-2021 22:05:00,24-Jan-2021 14:05:00,33.87134,-120.12632,083.3 051.0,083.3,051.0,19.000,19.137,,13.0061,,12.9850,,12.9956,33.5190,,33.5248,33.5233,,33.5253,33.5251,4.3990,,4.6039,4.7331,4.3937,,4.6645,4.7650,4.7491,191.620,200.8480,166.0733,191.389,213.5368,166.4232,166.2483,0.1075,,0.6327,0.9237, ,, , ,25.2449,,25.2524,,0.8126,81.6155,,,,6.6372E+02,,1.0000E-12,,13.0035,12.9824,0.0460,271.984,73.541,73.423,,,,,,,,,,,,
CalCOFI,2101RL,042,,2101_042d,24-Jan-2021 22:05:02,24-Jan-2021 14:05:02,33.87134,-120.12632,083.3 051.0,083.3,051.0,20.000,20.144,,12.8022,,12.7985,,12.8004,33.5409,,33.5467,33.5350,,33.5370,33.5419,4.4171,,4.6228,4.7530,4.3912,,4.6619,4.7623,4.7577,192.401,201.6656,166.2711,191.274,214.4053,166.3918,166.3315,0.0981,,0.5556,0.9025, ,, , ,25.3022,,25.2983,,0.7985,81.9040,,,,6.6331E+02,,1.0000E-12,,12.7996,12.7958,0.0487,266.556,73.544,73.105,20,,33.4824,5.362,233.91,1.426,0.272,,,,,
CalCOFI,2101RL,042,,2101_042d,24-Jan-2021 22:05:04,24-Jan-2021 14:05:04,33.87134,-120.12632,083.3 051.0,083.3,051.0,21.000,21.152,,12.7505,,12.7452,,12.7479,33.5396,,33.5454,33.5358,,33.5378,33.5416,4.4263,,4.6325,4.7631,4.4002,,4.6715,4.7722,4.7677,192.798,202.0811,166.3716,191.663,214.8468,166.4979,166.4348,0.0918,,0.5040,0.8883, ,, , ,25.3113,,25.3094,,0.7957,81.9623,,,,6.5150E+02,,1.0000E-12,,12.7477,12.7424,0.0514,265.712,73.617,73.174,,,,,,,,,,,,
CalCOFI,2101RL,042,,2101_042d,24-Jan-2021 22:05:06,24-Jan-2021 14:05:06,33.87134,-120.12632,083.3 051.0,083.3,051.0,22.000,22.159,,12.6979,,12.6936,,12.6958,33.5344,,33.5402,33.5345,,33.5365,33.5384,4.3767,,4.5806,4.7086,4.3678,,4.6370,4.7365,4.7226,190.638,199.8201,165.8247,190.247,212.4448,166.1118,165.9683,0.0891,,0.4819,0.8822, ,, , ,25.3176,,25.3185,,0.7943,81.9908,,,,6.5418E+02,,1.0000E-12,,12.6950,12.6907,0.0541,265.139,72.711,72.556,,,,,,,,,,,,
CalCOFI,2101RL,042,,2101_042d,24-Jan-2021 22:05:08,24-Jan-2021 14:05:08,33.87132,-120.12634,083.3 051.0,083.3,051.0,23.000,23.166,,12.6031,,12.5963,,12.5997,33.5440,,33.5498,33.5422,,33.5442,33.5470,4.0377,,4.2258,4.3364,4.1666,,4.4233,4.5148,4.4256,175.866,184.3567,162.0846,181.482,196.0182,163.7218,162.9032,0.0859,,0.4557,0.8749, ,, , ,25.3435,,25.3434,,0.7913,82.0525,,,,6.6323E+02,,1.0000E-12,,12.6001,12.5932,0.0568,262.699,66.953,69.079,,,,,,,,,,,,
CalCOFI,2101RL,042,,2101_042d,24-Jan-2021 22:05:10,24-Jan-2021 14:05:10,33.87132,-120.12634,083.3 051.0,083.3,051.0,24.000,24.174,,12.3907,,12.3858,,12.3883,33.5503,,33.5561,33.5516,,33.5536,33.5549,3.6430,,3.8127,3.9030,3.7640,,3.9957,4.0713,3.9872,158.670,166.3560,157.7307,163.936,176.8959,158.9374,158.3341,0.0791,,0.4000,0.8596, ,, , ,25.3894,,25.3914,,0.7811,82.2614,,,,6.6155E+02,,1.0000E-12,,12.3876,12.3827,0.0594,258.348,60.143,62.134,,,,,,,,,,,,
CalCOFI,2101RL,042,,2101_042d,24-Jan-2021 22:05:11,24-Jan-2021 14:05:11,33.87130,-120.12634,083.3 051.0,083.3,051.0,25.000,25.181,,12.2308,,12.2308,,12.2308,33.5944,,33.6002,33.5924,,33.5944,33.5973,3.6132,,3.7815,3.8703,3.6795,,3.9060,3.9782,3.9243,157.358,164.9826,157.3985,160.246,175.4370,157.9312,157.6649,0.0820,,0.4237,0.8661, ,, , ,25.4544,,25.4528,,0.7652,82.5878,,,,6.6017E+02,,1.0000E-12,,12.2276,12.2276,0.0619,252.192,59.467,60.558,,,,,,,,,,,,
CalCOFI,2101RL,042,,2101_042d,24-Jan-2021 22:05:13,24-Jan-2021 14:05:13,33.87130,-120.12634,083.3 051.0,083.3,051.0,26.000,26.188,,12.1030,,12.1024,,12.1027,33.6220,,33.6278,33.6220,,33.6240,33.6259,3.7905,,3.9670,4.0650,3.7965,,4.0303,4.1071,4.0861,165.073,173.0586,159.3519,165.334,184.0162,159.3186,159.3353,0.0734,,0.3532,0.8467, ,, , ,25.5000,,25.5001,,0.7584,82.7298,,,,6.6310E+02,,1.0000E-12,,12.0996,12.0991,0.0645,247.869,62.228,62.326,,,,,,,,,,,,
CalCOFI,2101RL,042,,2101_042d,24-Jan-2021 22:05:16,24-Jan-2021 14:05:16,33.87128,-120.12634,083.3 051.0,083.3,051.0,27.000,27.195,,12.0891,,12.1499,,12.1195,33.6263,,33.6321,33.6087,,33.6107,33.6214,3.3950,,3.5531,3.6307,3.4843,,3.6987,3.7631,3.6969,147.849,155.0285,154.9910,151.743,164.8628,155.6126,155.3018,0.0551,,0.2033,0.8053, ,, , ,25.5059,,25.4807,,0.7511,82.8806,,,,6.5680E+02,,1.0000E-12,,12.0856,12.1464,0.0670,247.336,55.723,57.263,,,,,,,,,,,,
CalCOFI,2101RL,042,,2101_042d,24-Jan-2021 22:05:18,24-Jan-2021 14:05:18,33.87128,-120.12636,083.3 051.0,083.3,051.0,28.000,28.203,,11.6260,,11.6272,,11.6266,33.6922,,33.6980,33.6895,,33.6915,33.6948,3.2619,,3.4138,3.4845,3.2768,,3.4783,3.5345,3.5095,142.033,148.9403,153.5184,142.685,158.3953,153.1427,153.3306,0.0477,,0.1427,0.7886, ,, , ,25.6439,,25.6416,,0.7432,83.0443,,,,6.7334E+02,,1.0000E-12,,11.6225,11.6237,0.0694,234.217,53.040,53.283,,,,,,,,,,,,
CalCOFI,2101RL,042,,2101_042d,24-Jan-2021 22:05:20,24-Jan-2021 14:05:20,33.87128,-120.12636,083.3 051.0,083.3,051.0,29.000,29.210,,11.5452,,11.5444,,11.5448,33.7027,,33.7085,33.7004,,33.7024,33.7055,3.2566,,3.4083,3.4787,3.2551,,3.4552,3.5106,3.4947,141.798,148.6943,153.4589,141.737,158.1340,152.8842,153.1716,0.0450,,0.1205,0.7825, ,, , ,25.6671,,25.6654,,0.7407,83.0968,,,,6.7608E+02,,1.0000E-12,,11.5416,11.5408,0.0717,232.039,52.867,52.842,,,,,,,,,,,,
CalCOFI,2101RL,042,,2101_042d,24-Jan-2021 22:05:21,24-Jan-2021 14:05:21,33.87126,-120.12636,083.3 051.0,083.3,051.0,30.000,30.217,,11.4523,,11.4538,,11.4531,33.7232,,33.7290,33.7187,,33.7207,33.7249,3.2436,,3.3947,3.4644,3.2356,,3.4345,3.4891,3.4768,141.230,148.0998,153.3151,140.881,157.5024,152.6508,152.9830,0.0415,,0.0919,0.7746, ,, , ,25.7001,,25.6963,,0.7381,83.1505,,,,6.6954E+02,,1.0000E-12,,11.4486,11.4500,0.0740,228.922,52.560,52.430,,,,,,,,,,,,
CalCOFI,2101RL,042,,2101_042d,24-Jan-2021 22:05:24,24-Jan-2021 14:05:24,33.87125,-120.12636,083.3 051.0,083.3,051.0,31.000,31.225,,11.4124,,11.4258,,11.4191,33.7329,,33.7387,33.7282,,33.7302,33.7345,3.1507,,3.2974,3.3624,3.1591,,3.3533,3.4048,3.3836,137.184,143.8644,152.2907,137.551,153.0032,151.7428,152.0168,0.0402,,0.0812,0.7716, ,, , ,25.7150,,25.7088,,0.7363,83.1881,,,,6.6348E+02,,1.0000E-12,,11.4085,11.4220,0.0763,227.530,51.015,51.164,,,,,,,,,,,,
CalCOFI,2101RL,042,,2101_042d,24-Jan-2021 22:05:26,24-Jan-2021 14:05:26,33.87124,-120.12636,083.3 051.0,083.3,051.0,32.000,32.232,,11.2922,,11.2941,,11.2932,33.7543,,33.7601,33.7504,,33.7524,33.7563,3.1081,,3.2528,3.3156,3.1036,,3.2943,3.3437,3.3297,135.321,141.9142,151.8190,135.127,150.9315,151.0818,151.4504,0.0378,,0.0615,0.7662, ,, , ,25.7535,,25.7502,,0.7337,83.2407,,,,6.7206E+02,,1.0000E-12,,11.2883,11.2901,0.0786,223.883,50.203,50.131,,,,,,,,,,,,
CalCOFI,2101RL,042,,2101_042d,24-Jan-2021 22:05:28,24-Jan-2021 14:05:28,33.87126,-120.12638,083.3 051.0,083.3,051.0,33.000,33.239,,11.2140,,11.2171,,11.2156,33.7696,,33.7754,33.7636,,33.7656,33.7705,3.0914,,3.2354,3.2973,3.0852,,3.2748,3.3234,3.3104,134.593,141.1522,151.6347,134.324,150.1219,150.8629,151.2488,0.0369,,0.0542,0.7642, ,, , ,25.7797,,25.7744,,0.7320,83.2783,,,,6.7223E+02,,1.0000E-12,,11.2099,11.2130,0.0808,221.421,49.856,49.757,,,,,,,,,,,,
CalCOFI,2101RL,042,,2101_042d,24-Jan-2021 22:05:30,24-Jan-2021 14:05:30,33.87126,-120.12639,083.3 051.0,083.3,051.0,34.000,34.247,,11.1888,,11.1892,,11.1890,33.7695,,33.7753,33.7655,,33.7675,33.7714,3.0862,,3.2299,3.2916,3.0708,,3.2595,3.3075,3.2996,134.367,140.9156,151.5774,133.693,149.8706,150.6908,151.1341,0.0361,,0.0476,0.7624, ,, , ,25.7841,,25.7810,,0.7320,83.2775,,,,6.7165E+02,,1.0000E-12,,11.1847,11.1850,0.0831,221.018,49.746,49.495,,,,,,,,,,,,
CalCOFI,2101RL,042,,2101_042d,24-Jan-2021 22:05:32,24-Jan-2021 14:05:32,33.87126,-120.12640,083.3 051.0,083.3,051.0,35.000,35.254,,11.1205,,11.1236,,11.1221,33.7787,,33.7845,33.7695,,33.7715,33.7780,3.0837,,3.2273,3.2888,3.0745,,3.2634,3.3116,3.3002,134.254,140.7973,151.5488,133.854,149.7450,150.7347,151.1418,0.0357,,0.0443,0.7615, ,, , ,25.8036,,25.7960,,0.7310,83.2980,,,,6.7522E+02,,1.0000E-12,,11.1162,11.1193,0.0853,219.187,49.635,49.487,,,,,,,,,,,,
CalCOFI,2101RL,042,,2101_042d,24-Jan-2021 22:05:34,24-Jan-2021 14:05:34,33.87128,-120.12640,083.3 051.0,083.3,051.0,36.000,36.262,,11.0678,,11.0702,,11.0690,33.7749,,33.7807,33.7702,,33.7722,33.7765,3.0786,,3.2220,3.2832,3.0632,,3.2514,3.2992,3.2912,134.033,140.5659,151.4929,133.363,149.4992,150.6008,151.0469,0.0357,,0.0443,0.7615, ,, , ,25.8101,,25.8061,,0.7310,83.2986,,,,6.7616E+02,,1.0000E-12,,11.0634,11.0658,0.0875,218.586,49.497,49.250,,,,,,,,,,,,
CalCOFI,2101RL,042,,2101_042d,24-Jan-2021 22:05:36,24-Jan-2021 14:05:36,33.87127,-120.12640,083.3 051.0,083.3,051.0,37.000,37.269,,11.0463,,11.0460,,11.0462,33.7753,,33.7811,33.7722,,33.7742,33.7777,3.0668,,3.2096,3.2703,3.0447,,3.2318,3.2788,3.2746,133.515,140.0237,151.3617,132.555,148.9232,150.3805,150.8711,0.0352,,0.0402,0.7603, ,, , ,25.8144,,25.8120,,0.7313,83.2922,,,,6.7844E+02,,1.0000E-12,,11.0417,11.0415,0.0897,218.209,49.283,48.928,,,,,,,,,,,,
CalCOFI,2101RL,042,,2101_042d,24-Jan-2021 22:05:38,24-Jan-2021 14:05:38,33.87122,-120.12638,083.3 051.0,083.3,051.0,38.000,38.276,,11.0305,,11.0302,,11.0304,33.7783,,33.7841,33.7755,,33.7775,33.7808,3.0564,,3.1987,3.2589,3.0421,,3.2290,3.2759,3.2674,133.063,139.5505,151.2473,132.442,148.4205,150.3497,150.7985,0.0357,,0.0443,0.7615, ,, , ,25.8195,,25.8174,,0.7321,83.2746,,,,6.8105E+02,,1.0000E-12,,11.0258,11.0256,0.0919,217.738,49.101,48.871,,,,,,,,,,,,
CalCOFI,2101RL,042,,2101_042d,24-Jan-2021 22:05:39,24-Jan-2021 14:05:39,33.87121,-120.12638,083.3 051.0,083.3,051.0,39.000,39.284,,11.0155,,11.0149,,11.0152,33.7807,,33.7865,33.7768,,33.7788,33.7827,3.0614,,3.2040,3.2644,3.0442,,3.2312,3.2782,3.2713,133.281,139.7788,151.3025,132.530,148.6630,150.3737,150.8381,0.0354,,0.0419,0.7608, ,, , ,25.8241,,25.8212,,0.7329,83.2590,,,,6.8172E+02,,1.0000E-12,,11.0107,11.0101,0.0941,217.325,49.167,48.888,,,,,,,,,,,,
CalCOFI,2101RL,042,,2101_042d,24-Jan-2021 22:05:42,24-Jan-2021 14:05:42,33.87118,-120.12639,083.3 051.0,083.3,051.0,40.000,40.291,,10.9898,,10.9859,,10.9879,33.7792,,33.7850,33.7765,,33.7785,33.7818,3.0640,,3.2067,3.2672,3.0459,,3.2331,3.2801,3.2737,133.393,139.8960,151.3308,132.604,148.7875,150.3939,150.8624,0.0356,,0.0435,0.7613, ,, , ,25.8276,,25.8262,,0.7330,83.2568,,,,6.7732E+02,,1.0000E-12,,10.9849,10.9811,0.0963,217.017,49.181,48.885,,,,,,,,,,,,
CalCOFI,2101RL,042,,2101_042d,24-Jan-2021 22:05:45,24-Jan-2021 14:05:45,33.87120,-120.12640,083.3 051.0,083.3,051.0,41.000,41.298,,10.9619,,10.9622,,10.9621,33.7777,,33.7835,33.7748,,33.7768,33.7802,3.0726,,3.2157,3.2767,3.0452,,3.2323,3.2793,3.2780,133.765,140.2854,151.4250,132.575,149.2012,150.3860,150.9055,0.0357,,0.0443,0.7615, ,, , ,25.8314,,25.8291,,0.7334,83.2475,,,,6.8756E+02,,1.0000E-12,,10.9569,10.9572,0.0985,216.675,49.288,48.849,,,,,,,,,,,,
CalCOFI,2101RL,042,,2101_042d,24-Jan-2021 22:05:46,24-Jan-2021 14:05:46,33.87120,-120.12641,083.3 051.0,083.3,051.0,42.000,42.306,,10.9600,,10.9569,,10.9585,33.7771,,33.7829,33.7746,,33.7766,33.7798,3.0821,,3.2256,3.2871,3.0511,,3.2386,3.2858,3.2865,134.181,140.7209,151.5303,132.833,149.6638,150.4563,150.9933,0.0369,,0.0542,0.7642, ,, , ,25.8313,,25.8299,,0.7342,83.2314,,,,6.9257E+02,,1.0000E-12,,10.9549,10.9518,0.1006,216.712,49.439,48.938,,,,,,,,,,,,
CalCOFI,2101RL,042,,2101_042d,24-Jan-2021 22:05:48,24-Jan-2021 14:05:48,33.87120,-120.12642,083.3 051.0,083.3,051.0,43.000,43.313,,10.9221,,10.9249,,10.9235,33.7730,,33.7788,33.7710,,33.7730,33.7759,3.0865,,3.2302,3.2919,3.0646,,3.2529,3.3007,3.2963,134.370,140.9187,151.5782,133.421,149.8740,150.6167,151.0975,0.0361,,0.0476,0.7624, ,, , ,25.8348,,25.8328,,0.7350,83.2150,,,,6.9276E+02,,1.0000E-12,,10.9169,10.9197,0.1028,216.395,49.468,49.120,,,,,,,,,,,,
CalCOFI,2101RL,042,,2101_042d,24-Jan-2021 22:05:50,24-Jan-2021 14:05:50,33.87120,-120.12642,083.3 051.0,083.3,051.0,44.000,44.320,,10.9057,,10.9074,,10.9066,33.7724,,33.7782,33.7696,,33.7716,33.7749,3.0912,,3.2351,3.2971,3.0630,,3.2512,3.2989,3.2980,134.575,141.1333,151.6301,133.349,150.1019,150.5970,151.1136,0.0363,,0.0492,0.7628, ,, , ,25.8374,,25.8349,,0.7356,83.2029,,,,6.8843E+02,,1.0000E-12,,10.9004,10.9021,0.1050,216.175,49.526,49.075,,,,,,,,,,,,
CalCOFI,2101RL,042,,2101_042d,24-Jan-2021 22:05:53,24-Jan-2021 14:05:53,33.87121,-120.12644,083.3 051.0,083.3,051.0,45.000,45.328,,10.9013,,10.9058,,10.9036,33.7730,,33.7788,33.7712,,33.7732,33.7760,3.0846,,3.2282,3.2898,3.0605,,3.2486,3.2962,3.2930,134.291,140.8360,151.5582,133.241,149.7861,150.5676,151.0629,0.0357,,0.0443,0.7615, ,, , ,25.8386,,25.8364,,0.7350,83.2159,,,,6.8546E+02,,1.0000E-12,,10.8959,10.9004,0.1072,216.082,49.417,49.034,,,,,,,,,,,,
CalCOFI,2101RL,042,,2101_042d,24-Jan-2021 22:05:55,24-Jan-2021 14:05:55,33.87122,-120.12646,083.3 051.0,083.3,051.0,46.000,46.335,,10.8972,,10.9013,,10.8993,33.7733,,33.7791,33.7709,,33.7729,33.7760,3.0993,,3.2436,3.3060,3.0672,,3.2557,3.3036,3.3048,134.926,141.5007,151.7190,133.531,150.4922,150.6467,151.1829,0.0359,,0.0460,0.7619, ,, , ,25.8396,,25.8370,,0.7364,83.1858,,,,7.0113E+02,,1.0000E-12,,10.8916,10.8957,0.1093,216.011,49.646,49.136,,,,,,,,,,,,
CalCOFI,2101RL,042,,2101_042d,24-Jan-2021 22:05:56,24-Jan-2021 14:05:56,33.87122,-120.12646,083.3 051.0,083.3,051.0,47.000,47.343,,10.8760,,10.8765,,10.8763,33.7687,,33.7745,33.7661,,33.7681,33.7713,3.1013,,3.2457,3.3082,3.0728,,3.2616,3.3097,3.3090,135.017,141.5960,151.7420,133.773,150.5934,150.7126,151.2273,0.0356,,0.0435,0.7613, ,, , ,25.8398,,25.8377,,0.7376,83.1599,,,,7.0695E+02,,1.0000E-12,,10.8703,10.8708,0.1115,216.016,49.656,49.198,,,,,,,,,,,,
CalCOFI,2101RL,042,,2101_042d,24-Jan-2021 22:05:57,24-Jan-2021 14:05:57,33.87122,-120.12646,083.3 051.0,083.3,051.0,48.000,48.350,,10.8746,,10.8774,,10.8760,33.7688,,33.7746,33.7663,,33.7683,33.7715,3.0989,,3.2432,3.3055,3.0721,,3.2609,3.3090,3.3073,134.909,141.4829,151.7147,133.746,150.4733,150.7053,151.2100,0.0368,,0.0533,0.7640, ,, , ,25.8402,,25.8377,,0.7379,83.1536,,,,7.0422E+02,,1.0000E-12,,10.8688,10.8716,0.1137,216.002,49.615,49.189,,,,,,,,,,,,
CalCOFI,2101RL,042,,2101_042d,24-Jan-2021 22:06:00,24-Jan-2021 14:06:00,33.87122,-120.12646,083.3 051.0,083.3,051.0,49.000,49.357,,10.8804,,10.8829,,10.8817,33.7700,,33.7758,33.7677,,33.7697,33.7728,3.0947,,3.2388,3.3009,3.0777,,3.2668,3.3151,3.3080,134.726,141.2914,151.6683,133.986,150.2698,150.7707,151.2195,0.0361,,0.0476,0.7624, ,, , ,25.8401,,25.8379,,0.7369,83.1741,,,,6.9698E+02,,1.0000E-12,,10.8745,10.8769,0.1159,216.037,49.554,49.284,,,,,,,,,,,,
CalCOFI,2101RL,042,,2101_042d,24-Jan-2021 22:06:03,24-Jan-2021 14:06:03,33.87122,-120.12646,083.3 051.0,083.3,051.0,50.000,50.365,,10.8612,,10.8650,,10.8631,33.7678,,33.7736,33.7658,,33.7678,33.7707,3.1091,,3.2539,3.3167,3.0744,,3.2633,3.3115,3.3141,135.357,141.9519,151.8281,133.842,150.9715,150.7315,151.2798,0.0364,,0.0501,0.7631, ,, , ,25.8418,,25.8395,,0.7373,83.1661,,,,7.1976E+02,,1.0000E-12,,10.8552,10.8590,0.1181,215.896,49.765,49.211,,,,,,,,,,,,
CalCOFI,2101RL,042,,2101_042d,24-Jan-2021 22:06:04,24-Jan-2021 14:06:04,33.87122,-120.12650,083.3 051.0,083.3,051.0,51.000,51.372,,10.8562,,10.8561,,10.8562,33.7671,,33.7729,33.7645,,33.7665,33.7697,3.1123,,3.2572,3.3203,3.0739,,3.2628,3.3110,3.3157,135.493,142.0943,151.8625,133.821,151.1227,150.7257,151.2941,0.0358,,0.0451,0.7617, ,, , ,25.8422,,25.8402,,0.7390,83.1323,,,,7.1914E+02,,1.0000E-12,,10.8501,10.8499,0.1202,215.883,49.809,49.194,51,,33.7700,3.185,138.92,1.292,0.259,,,,,
CalCOFI,2101RL,042,,2101_042d,24-Jan-2021 22:06:06,24-Jan-2021 14:06:06,33.87122,-120.12650,083.3 051.0,083.3,051.0,52.000,52.380,,10.8487,,10.8512,,10.8500,33.7669,,33.7727,33.7642,,33.7662,33.7695,3.1099,,3.2547,3.3176,3.0764,,3.2654,3.3137,3.3157,135.390,141.9865,151.8364,133.931,151.0082,150.7557,151.2961,0.0361,,0.0476,0.7624, ,, , ,25.8433,,25.8408,,0.7388,83.1368,,,,7.1264E+02,,1.0000E-12,,10.8425,10.8450,0.1224,215.795,49.764,49.229,,,,,,,,,,,,
CalCOFI,2101RL,042,,2101_042d,24-Jan-2021 22:06:07,24-Jan-2021 14:06:07,33.87122,-120.12650,083.3 051.0,083.3,051.0,53.000,53.387,,10.8425,,10.8419,,10.8422,33.7666,,33.7724,33.7635,,33.7655,33.7690,3.1059,,3.2505,3.3132,3.0770,,3.2661,3.3144,3.3138,135.215,141.8033,151.7921,133.955,150.8136,150.7623,151.2772,0.0361,,0.0476,0.7624, ,, , ,25.8442,,25.8420,,0.7394,83.1238,,,,7.2628E+02,,1.0000E-12,,10.8361,10.8355,0.1246,215.732,49.692,49.228,,,,,,,,,,,,